Location: Fairview
(40.8165°N, 122.7667°W)
Time: 22:58:32
(UTC+00:00)

USA 81 - Pass Details

Date: 15 September 2024
Orbit: 784 x 786 km, 85.0° (Epoch: 06 October)

Event Time Altitude Azimuth Distance (km) Brightness Sun altitude
Rises 03:17:15 0° 332° (NNW) 3,283 7.9 -11.4°
Reaches altitude 10° 03:21:23 10° 301° (WNW) 2,347 7.8 -12.2°
Maximum altitude 03:23:00 11° 282° (WNW) 2,245 7.9 -12.5°
Drops below altitude 10° 03:24:38 10° 264° (W) 2,342 7.7 -12.8°
Sets 03:28:46 0° 232° (SW) 3,263 7.8 -13.5°
